Tracking 20232 objects as of 21-Jan-2020
HD Live streaming from Space Station
objects crossing your sky now

DELTA 1 DEB

Track DELTA 1 DEB now!
10-day predictions


NORAD ID: 12211
Int'l Code: 1978-026BC
Perigee: 791.8 km
Apogee: 968.7 km
Inclination: 99.4 °
Period: 102.4 minutes
Semi major axis: 7251 km
RCS: 0.0111 m2 (small)
Launch date: March 5, 1978
Source: United States (US)
Launch site: AIR FORCE WESTERN TEST RANGE (AFWTR)

Note: This is SATELLITE DEBRIS
aabbcc
Your satellite tracking list
Your tracking list is empty




NASA's NSSDC Master Catalog

Two Line Element Set (TLE):
1 12211U 78026BC  20020.94970343 -.00000084 +00000-0 -21398-4 0  9994
2 12211 099.3546 201.6734 0122007 086.0960 275.4145 14.05992037990667
Source of the keplerian elements: AFSPC